Weather History for Lee's Summit, MO

Change the Weather History Date:

Monday, January 7, 2013

  Actual Average (KMKC) Record (KMKC)
Temperature  
Mean Temperature 38 °F -  
Max Temperature 48 °F 37 °F 66 °F (2008)
Min Temperature 28 °F 21 °F 1 °F (2014)
Degree Days  
Heating Degree Days 27    
Moisture  
Dew Point 22 °F    
Average Humidity 56    
Maximum Humidity 67    
Minimum Humidity 37    
Precipitation  
Precipitation 0.00 in - - ()
Sea Level Pressure  
Sea Level Pressure 30.18 in    
Wind  
Wind Speed 11 mph (SSW)    
Max Wind Speed 20 mph    
Max Gust Speed 28 mph    
Visibility 10 miles    
Events      
Averages and records for this station are not official NWS values.
T = Trace of Precipitation, MM = Missing Value Source: NWS Daily Summary

Daily Weather History Graph

Daily Weather History Graph

Search for Another Location

Airport:

Trip Planner

Search our weather history database for the weather conditions in past years. The results will help you decide how hot, cold, wet, or windy it might be!

Date:

Astronomy

Jan. 07, 2013 Rise Set
Actual Time 7:36 AM CST 5:11 PM CST
Civil Twilight 7:06 AM CST 5:41 PM CST
Nautical Twilight 6:33 AM CST 6:14 PM CST
Astronomical Twilight 6:01 AM CST 6:46 PM CST
Moon 3:01 AM CST (1/7) 1:22 PM CST (1/7)
Length of Visible Light 10h 34m
Length of Day
9h 35m
Waning Crescent, 22% of the Moon is Illuminated
Jan 7
Waning Crescent
Jan 11
New
Jan 18
First Quarter
Jan 26
Full
Feb 3
Last Quarter

Hourly Weather History & Observations

Time (CST) Temp. Windchill Dew Point Humidity Pressure Visibility Wind Dir Wind Speed Gust Speed Precip Events Conditions
12:53 AM 30.0 °F 20.0 °F 19.9 °F 66% 30.31 in 10.0 mi South 12.7 mph - N/A   Clear
1:53 AM 30.0 °F 21.1 °F 19.0 °F 64% 30.30 in 10.0 mi South 10.4 mph - N/A   Clear
2:53 AM 30.0 °F 20.5 °F 19.0 °F 64% 30.29 in 10.0 mi South 11.5 mph - N/A   Clear
3:53 AM 28.9 °F 21.1 °F 19.0 °F 67% 30.27 in 10.0 mi South 8.1 mph - N/A   Clear
4:53 AM 28.9 °F 20.4 °F 19.0 °F 67% 30.26 in 10.0 mi SSW 9.2 mph - N/A   Clear
6:53 AM 28.9 °F 19.8 °F 19.0 °F 67% 30.26 in 10.0 mi SSW 10.4 mph - N/A   Clear
7:53 AM 28.9 °F 20.4 °F 19.0 °F 67% 30.25 in 10.0 mi SSW 9.2 mph 17.3 mph N/A   Clear
8:53 AM 32.0 °F 22.5 °F 19.9 °F 61% 30.25 in 10.0 mi SSW 12.7 mph 18.4 mph N/A   Clear
9:53 AM 35.1 °F 26.4 °F 21.0 °F 57% 30.27 in 10.0 mi South 12.7 mph - N/A   Clear
10:53 AM 39.0 °F 31.0 °F 21.9 °F 50% 30.25 in 10.0 mi SSW 13.8 mph 23.0 mph N/A   Clear
11:53 AM 45.0 °F 37.9 °F 21.9 °F 40% 30.19 in 10.0 mi SSW 16.1 mph 23.0 mph N/A   Clear
1:53 PM 46.9 °F - 21.9 °F 37% 30.12 in 10.0 mi SSW 19.6 mph 27.6 mph N/A   Clear
2:53 PM 46.9 °F - 23.0 °F 39% 30.12 in 10.0 mi SW 16.1 mph - N/A   Clear
3:53 PM 48.0 °F - 24.1 °F 39% 30.11 in 10.0 mi SSW 9.2 mph - N/A   Clear
5:53 PM 43.0 °F 37.2 °F 25.0 °F 49% 30.10 in 10.0 mi South 10.4 mph - N/A   Clear
6:53 PM 41.0 °F 34.7 °F 24.1 °F 51% 30.10 in 10.0 mi South 10.4 mph - N/A   Clear
7:53 PM 41.0 °F 34.7 °F 25.0 °F 53% 30.09 in 10.0 mi SSW 10.4 mph 19.6 mph N/A   Clear
8:53 PM 39.9 °F 33.9 °F 25.0 °F 55% 30.09 in 10.0 mi SSW 9.2 mph - N/A   Clear
9:53 PM 41.0 °F 34.7 °F 26.1 °F 55% 30.08 in 10.0 mi SSW 10.4 mph - N/A   Clear
10:53 PM 39.9 °F 34.5 °F 26.1 °F 58% 30.08 in 10.0 mi SSW 8.1 mph - N/A   Clear
11:53 PM 39.0 °F 33.4 °F 26.1 °F 60% 30.07 in 10.0 mi South 8.1 mph - N/A   Clear